Weather History for KSTJ - April, 2014

Change the Weather History Date:

Friday, April 11, 2014

  Actual Average Record
Temperature  
Mean Temperature 56 °F 53 °F  
Max Temperature 77 °F 65 °F 90 °F (1996)
Min Temperature 34 °F 41 °F 26 °F (2004)
Degree Days  
Heating Degree Days 9 13  
Month to date heating degree days 190 156  
Since 1 July heating degree days 5956 5149  
Cooling Degree Days 0 1  
Month to date cooling degree days 0 4  
Year to date cooling degree days 0 6  
Growing Degree Days 5 (Base 50)    
Moisture  
Dew Point 31 °F    
Average Humidity 50    
Maximum Humidity 85    
Minimum Humidity 15    
Precipitation  
Precipitation 0.00 in 0.11 in 1.31 in (2005)
Month to date precipitation 1.15 1.06  
Year to date precipitation 2.38 4.80  
Sea Level Pressure  
Sea Level Pressure 30.00 in    
Wind  
Wind Speed 6 mph (SSE)    
Max Wind Speed 15 mph    
Max Gust Speed 20 mph    
Visibility 10 miles    
Events      
T = Trace of Precipitation, MM = Missing Value Source: NWS Daily Summary

Daily Weather History Graph

Daily Weather History Graph

Search for Another Location

Airport or City:

Trip Planner

Search our weather history database for the weather conditions in past years. The results will help you decide how hot, cold, wet, or windy it might be!

Date:

Astronomy

Apr. 11, 2014 Rise Set
Actual Time 6:48 AM CDT 7:53 PM CDT
Civil Twilight 6:20 AM CDT 8:21 PM CDT
Nautical Twilight 5:47 AM CDT 8:54 PM CDT
Astronomical Twilight 5:13 AM CDT 9:29 PM CDT
Moon 4:35 PM CDT (4/11) 4:43 AM CDT (4/11)
Length of Visible Light 14h 01m
Length of Day
13h 05m
Waxing Gibbous, 87% of the Moon is Illuminated
Apr 11
Waxing Gibbous
Apr 15
Full
Apr 22
Last Quarter
Apr 29
New
May 6
First Quarter

Hourly Weather History & Observations

Time (CDT) Temp. Windchill Dew Point Humidity Pressure Visibility Wind Dir Wind Speed Gust Speed Precip Events Conditions
12:53 AM 37.0 °F - 28.9 °F 73% 30.03 in 9.0 mi Calm Calm - N/A   Clear
1:53 AM 37.9 °F - 30.0 °F 73% 30.04 in 10.0 mi Calm Calm - N/A   Clear
2:53 AM 37.0 °F - 32.0 °F 82% 30.05 in 10.0 mi Calm Calm - N/A   Clear
3:53 AM 35.1 °F - 28.9 °F 78% 30.07 in 10.0 mi Calm Calm - N/A   Partly Cloudy
4:53 AM 39.0 °F - 34.0 °F 82% 30.03 in 10.0 mi Calm Calm - N/A   Partly Cloudy
5:53 AM 37.0 °F 33.3 °F 30.9 °F 79% 30.04 in 10.0 mi NNW 4.6 mph - N/A   Clear
6:53 AM 37.0 °F 34.5 °F 32.0 °F 82% 30.07 in 10.0 mi SE 3.5 mph - N/A   Clear
7:53 AM 39.9 °F - 36.0 °F 86% 30.07 in 9.0 mi Calm Calm - N/A   Clear
8:53 AM 48.0 °F - 36.0 °F 63% 30.08 in 10.0 mi Calm Calm - N/A   Clear
9:53 AM 59.0 °F - 33.1 °F 38% 30.08 in 10.0 mi SSW 4.6 mph - N/A   Clear
10:53 AM 66.0 °F - 24.1 °F 20% 30.07 in 10.0 mi South 12.7 mph - N/A   Clear
11:53 AM 70.0 °F - 25.0 °F 18% 30.07 in 10.0 mi SSE 10.4 mph - N/A   Clear
12:53 PM 71.1 °F - 21.9 °F 16% 30.05 in 10.0 mi SSE 9.2 mph - N/A   Clear
1:53 PM 73.0 °F - 25.0 °F 17% 30.02 in 10.0 mi SSW 8.1 mph - N/A   Clear
2:53 PM 73.9 °F - 27.0 °F 18% 29.99 in 10.0 mi South 8.1 mph - N/A   Clear
3:53 PM 75.9 °F - 30.0 °F 19% 29.96 in 10.0 mi Variable 4.6 mph - N/A   Clear
4:53 PM 75.0 °F - 30.0 °F 19% 29.94 in 10.0 mi SSE 3.5 mph - N/A   Clear
5:53 PM 75.9 °F - 30.9 °F 19% 29.92 in 10.0 mi SSE 9.2 mph - N/A   Clear
6:53 PM 73.9 °F - 32.0 °F 21% 29.91 in 10.0 mi SE 12.7 mph - N/A   Clear
7:53 PM 68.0 °F - 34.0 °F 28% 29.91 in 10.0 mi SE 8.1 mph - N/A   Clear
8:53 PM 63.0 °F - 35.1 °F 35% 29.92 in 10.0 mi SE 6.9 mph - N/A   Clear
9:53 PM 63.0 °F - 36.0 °F 37% 29.90 in 10.0 mi SE 9.2 mph - N/A   Clear
10:53 PM 63.0 °F - 36.0 °F 37% 29.88 in 10.0 mi SE 10.4 mph - N/A   Clear
11:53 PM 63.0 °F - 36.0 °F 37% 29.87 in 10.0 mi SSE 9.2 mph - N/A   Clear